Location: College Park
(38.9810°N, 76.9370°W)
Time: 14:21:19
(UTC-05:00)

Tiangong 2 - Pass Details

Date: 05 January 2018
Orbit: 384 x 390 km, 42.8° (Epoch: 18 January)

Event Time Altitude Azimuth Distance (km) Brightness Sun altitude
Rises 17:48:45 0° 281° (W) 2,267 6.0 -9.4°
Reaches altitude 10° 17:51:11 10° 263° (W) 1,408 5.4 -9.9°
Maximum altitude 17:53:33 19° 215° (SW) 977 3.9 -10.3°
Drops below altitude 10° 17:55:54 10° 166° (SSE) 1,399 4.0 -10.7°
Sets 17:58:19 0° 148° (SSE) 2,247 4.8 -11.2°
